Powrót do katalogu

STARLINK-32268

AktywnyŁącznośćVLEO
NORAD 60372·PAYLOAD·🇺🇸 United States

Wystrzelony Aug 4, 2024 z Vandenberg Space Force Base

Loading…

Następne Przeloty (najbliższe 24 godziny)

TLE

ŚwieżeSource: CelesTrak SupGP

Epoka: Sep 15, 2026, 03:39 UTC

1 60372C 24138T   26258.15256944  .00039817  00000+0  11764-2 0  2581
2 60372  53.1570 148.7203 0001309  81.7655  47.8718 15.34369886    10

Śledź STARLINK-32268 w czasie rzeczywistym z AllMySat

Download on the App Store